RH
72 68 68 68 72 78 86 99 99 98 97 99 100 98 98 85 84 80 85 94 97 98 88 95 98 90 79 72 72 86 88 98 97 95 93 96 95 91 90 97 93 96 95 99
65 67 69 68 67 75 98 99 95 97 97 99 98 82 96 96 98 88 97 98 97 81 97 99 98 96 79 77 77 97 97 98 96 95 96 94 95 93 93 94 96 96 96 100
64 64 70 71 69 70 94 98 99 100 100 100 99 98 97 92 83 96 96 98 95 97 99 99 99 99 85 83 73 74 91 98 96 91 90 94 95 92 93 95 96 96 98 98
65 69 65 65 69 69 86 94 95 98 99 96 96 92 94 94 92 80 86 88 94 96 97 91 98 95 95 97 96 99 99 97 94 92 94 94 96 96 96 96 97 98 99 97
71 69 66 70 68 66 88 96 96 89 98 86 91 94 97 96 85 88 92 91 91 94 95 97 97 96 96 96 93 95 95 98 93 96 95 91 97 96 97 97 97 97 96 99
66 67 72 72 73 69 91 96 91 94 90 96 95 100 93 93 91 89 95 96 96 93 97 96 95 93 94 94 96 96 96 96 96 99 95 96 92 99 96 97 97 97 98 98
70 75 75 72 81 82 96 98 98 96 100 99 100 100 100 100 99 96 89 96 94 97 96 96 97 88 78 72 69 84 96 96 96 98 97 99 96 94 90 95 98 97 96 97
62 66 70 75 78 80 95 96 99 96 100 100 97 98 100 96 92 96 97 96 96 96 97 97 96 86 75 76 66 62 72 97 97 97 98 99 97 95 95 96 98 97 98 93
57 62 62 61 72 71 94 96 99 96 94 86 98 100 100 100 100 90 92 83 80 93 95 95 97 99 97 91 79 46 62 68 89 97 96 98 96 93 89 96 96 90 91 90
51 53 51 53 50 52 80 94 98 93 96 92 98 100 100 100 100 100 92 94 90 75 92 92 95 99 96 99 100 100 84 92 97 97 99 99 95 76 83 88 89 77 90 93
52 48 48 45 44 46 66 88 94 90 93 90 93 93 100 99 100 100 88 90 85 85 96 95 100 100 99 94 99 100 100 100 99 90 90 90 82 66 66 84 96 90 83 89
53 53 52 49 41 43 40 84 96 96 89 76 89 85 79 83 91 99 98 94 100 99 97 99 96 93 88 99 84 83 81 98 98 83 89 86 94 84 88 95 94 93 96 88
50 52 54 49 54 56 63 98 100 88 90 91 81 62 65 78 96 93 90 90 94 90 98 97 98 89 92 87 84 88 89 98 91 74 71 96 99 85 90 92 92 88 84 88
55 44 47 52 55 56 60 82 97 78 72 77 66 74 66 68 75 90 96 84 86 86 90 96 97 93 81 94 87 92 98 93 99 88 75 83 83 90 93 90 85 82 81 83
54 53 54 52 52 55 68 83 87 76 82 73 74 73 71 50 75 76 80 82 91 95 91 95 100 100 90 99 94 96 97 86 88 78 71 83 80 85 91 94 89 86 93 89
58 58 57 51 53 50 33 64 66 60 73 79 68 77 64 54 69 60 69 69 88 96 94 100 100 99 87 91 86 69 93 99 84 90 92 87 86 93 96 98 94 90 94 93
50 52 53 58 54 65 48 68 71 60 89 78 74 73 54 62 79 78 77 77 98 93 100 99 99 96 89 99 100 87 85 83 90 98 100 97 98 88 94 98 93 99 99 97
44 46 48 49 61 66 88 96 59 56 56 58 85 74 58 64 76 87 84 93 95 88 99 98 97 95 96 98 86 89 92 93 96 92 93 82 93 97 94 96 98 99 96 94
43 43 47 47 60 65 85 60 57 64 56 88 92 99 91 68 79 97 88 97 87 90 96 97 89 96 99 87 92 94 92 96 92 95 99 97 100 97 94 95 95 100 95 94
45 38 33 58 47 56 46 55 67 72 80 88 98 92 97 91 86 94 94 97 98 93 95 93 94 92 91 84 82 90 92 94 98 100 97 97 95 92 92 94 92 93 91 91
42 47 47 47 53 51 64 84 85 87 90 92 99 99 100 87 99 100 99 99 97 79 87 89 92 92 87 83 89 88 94 96 96 95 92 93 96 97 95 92 90 90 92 94
48 50 55 58 66 78 64 94 82 88 93 96 100 98 99 95 92 100 96 92 87 68 94 86 88 88 80 82 79 81 89 96 96 93 94 92 94 92 95 94 93 90 87 88
54 63 69 74 78 62 74 90 80 87 95 99 98 97 100 90 88 99 97 73 85 93 87 74 82 85 81 80 76 77 80 95 96 96 94 92 93 90 94 94 90 90 93 91
79 69 49 72 73 85 93 90 93 90 98 99 99 100 98 95 98 100 83 86 96 90 94 94 91 89 91 86 79 79 85 89 93 94 93 95 95 94 90 90 93 94 96 89
78 72 56 65 88 96 97 98 97 92 95 97 96 97 93 97 99 98 94 87 92 93 97 97 90 91 86 91 89 89 90 89 92 90 94 94 94 96 94 89 89 95 94 95
77 73 66 94 90 90 96 99 97 97 98 95 95 99 91 96 99 84 96 99 99 96 94 90 90 91 89 89 88 88 87 88 90 91 91 92 94 95 93 91 94 94 95 95
67 81 97 96 96 91 96 98 97 95 99 100 99 87 98 96 94 94 96 97 95 94 91 86 88 94 93 92 91 88 89 89 89 91 91 91 89 91 95 96 85 84 88 94
Wind_Speed
21 22 23 22 22 24 8 4 5 2 4 4 3 5 7 8 12 9 15 10 15 12 11 11 13 15 14 10 11 11 10 5 6 6 1 1 4 3 6 4 5 4 1 4
21 22 21 19 18 17 4 4 5 1 2 7 7 14 13 11 10 15 8 12 12 15 14 15 13 8 7 10 13 10 8 5 3 3 1 3 5 4 4 1 1 3 3 4
23 21 21 20 18 16 4 4 5 2 2 2 6 12 10 11 15 12 13 16 15 18 14 12 5 8 7 10 13 20 15 7 4 3 3 2 6 8 4 4 3 5 4 9
22 21 19 18 17 15 3 3 5 3 5 5 7 10 8 8 10 7 11 5 10 8 7 11 10 13 12 11 16 8 5 4 11 15 17 21 15 14 16 8 3 3 8 9
21 19 20 20 17 16 2 3 5 6 7 9 9 13 8 7 8 7 8 9 14 11 4 5 7 7 10 1 9 10 12 8 6 11 15 23 25 14 10 10 9 13 12 8
21 19 20 19 17 9 3 3 3 2 9 7 5 3 7 9 13 7 7 11 6 10 4 2 10 14 11 9 6 7 6 2 6 6 7 2 12 11 8 4 7 2 4 3
26 23 20 18 21 11 3 3 2 4 3 4 1 3 4 7 5 6 10 7 6 5 9 4 2 2 11 12 17 14 6 4 4 5 4 6 4 5 12 10 6 7 7 4
26 23 23 19 18 19 6 3 3 5 3 4 5 10 4 10 7 4 5 5 3 11 5 4 4 4 6 11 11 20 15 3 6 5 6 4 1 3 4 4 3 5 3 4
28 27 22 26 17 13 5 4 2 6 8 8 5 4 1 5 6 8 3 4 9 6 2 4 6 5 5 9 16 10 16 16 5 3 6 4 1 3 5 3 2 1 3 4
27 25 26 25 21 22 7 3 3 8 8 5 4 2 3 2 3 4 6 9 10 10 4 5 6 3 3 6 6 9 9 7 9 7 7 2 1 6 3 4 3 2 1 4
19 18 24 27 25 24 7 1 4 7 6 4 5 4 1 5 2 2 7 4 6 7 7 4 3 5 2 5 2 2 4 4 4 3 6 3 3 3 5 5 2 2 3 4
21 18 15 13 6 12 10 6 3 3 7 7 7 7 6 9 7 3 5 5 2 1 4 4 3 5 5 2 3 4 6 5 3 5 6 5 4 6 5 5 5 4 3 5
19 21 20 15 16 15 9 2 2 5 5 4 5 4 5 3 5 4 4 2 3 4 4 5 3 8 3 3 3 1 5 2 1 4 5 5 4 4 5 6 6 4 6 8
10 11 14 17 21 20 8 4 2 3 3 6 7 1 4 7 5 2 3 3 2 4 3 5 4 4 2 2 3 3 4 1 1 6 6 6 5 6 5 6 6 7 9 9
12 5 4 7 7 4 8 3 1 2 5 5 4 3 3 5 5 7 5 6 4 4 5 6 2 1 3 2 2 3 4 5 3 6 6 6 8 5 3 5 8 11 9 8
11 15 17 13 4 3 3 4 3 8 3 6 2 3 7 8 8 11 10 6 5 5 5 2 1 3 4 4 1 7 6 4 6 6 4 7 7 7 5 7 10 9 7 10
3 6 10 14 14 6 6 4 6 12 2 4 4 4 5 6 4 4 5 5 3 4 3 4 2 2 3 3 1 7 7 8 6 4 2 7 4 7 4 8 9 12 8 9
2 4 6 8 13 12 5 3 10 3 6 5 4 5 4 10 5 5 4 4 3 6 3 1 2 2 2 3 7 7 5 6 6 10 12 11 3 7 10 6 4 7 10 8
2 4 3 3 5 4 2 1 7 5 6 6 5 3 6 8 2 1 5 2 4 2 3 2 1 3 3 7 9 9 8 4 9 3 6 9 9 14 13 8 6 8 10 8
3 4 3 4 3 6 5 6 6 9 7 6 4 2 4 4 4 3 4 3 2 3 3 2 3 3 4 7 8 8 9 8 4 3 8 3 7 8 7 8 8 9 11 10
3 3 2 2 7 3 5 6 7 5 6 4 0 2 3 2 2 3 2 1 2 4 4 2 3 3 5 7 8 8 8 8 9 10 10 10 11 11 12 13 11 10 11 12
3 4 3 3 7 6 10 3 5 6 3 3 2 3 2 3 1 2 3 1 3 2 2 4 3 5 6 7 10 11 9 8 9 9 12 13 12 13 12 12 12 12 11 11
3 6 8 7 7 15 8 7 7 6 3 2 4 4 2 3 1 1 3 5 3 0 4 2 5 4 12 15 14 15 13 8 7 9 9 11 12 11 12 13 12 12 11 11
7 7 10 6 6 1 5 5 4 4 1 3 1 2 2 2 4 1 3 3 1 4 5 4 4 15 15 15 14 14 17 14 12 12 12 11 11 12 11 11 11 10 11 11
6 6 5 2 3 2 2 2 4 2 1 2 2 2 1 2 2 0 3 7 5 2 3 4 13 17 16 16 16 17 16 15 14 13 11 12 12 11 12 10 10 10 11 11
6 8 5 1 3 4 3 1 4 1 2 1 1 1 3 4 2 5 2 2 3 5 9 12 14 16 16 16 16 15 15 15 14 13 13 13 12 12 14 11 9 10 11 12
7 2 1 2 1 4 3 2 3 2 1 3 2 6 2 3 4 4 0 4 9 12 12 11 14 16 16 16 16 15 15 16 15 14 13 14 14 12 11 13 13 9 10 11
Wind_Direction
354 348 345 343 344 349 351 298 260 13 322 214 250 229 234 242 261 241 251 253 240 228 244 238 223 225 211 179 152 167 207 198 190 189 284 104 79 140 173 188 228 224 242 124
354 349 346 343 343 359 329 268 259 45 101 267 284 271 261 277 272 275 238 244 231 254 246 250 210 200 218 171 164 189 170 214 159 139 51 52 80 28 351 47 88 201 212 141
355 351 353 2 357 355 346 294 293 328 101 349 313 325 342 348 345 340 360 320 321 320 265 239 211 207 231 198 215 206 168 184 167 222 99 75 79 22 345 304 179 124 47 131
1 358 356 357 352 344 323 256 271 12 325 23 11 6 22 344 346 331 19 342 47 347 307 327 339 355 311 68 6 309 201 150 75 65 77 81 83 55 48 70 348 33 121 97
10 4 5 356 357 355 85 338 340 359 25 354 13 6 20 317 346 311 347 356 348 23 51 332 321 337 22 52 329 4 332 108 95 64 86 83 67 43 57 53 60 81 97 87
12 11 10 14 11 24 45 357 346 81 10 349 45 19 313 304 346 282 43 344 325 15 23 99 76 88 88 45 358 352 10 303 107 133 182 336 40 7 43 66 35 45 82 82
23 29 23 27 21 22 64 24 309 51 332 39 35 314 243 283 282 267 303 1 24 354 333 286 245 95 90 44 38 35 9 25 51 108 270 70 237 56 87 89 42 38 74 75
34 28 30 27 40 45 75 13 27 103 93 250 325 327 283 306 286 312 295 10 358 295 278 284 334 355 4 22 22 20 22 31 71 106 56 152 135 27 26 27 50 22 10 341
39 41 45 42 49 55 72 50 1 90 116 346 255 321 320 332 318 328 303 315 314 313 270 42 40 29 326 340 338 10 19 29 77 94 94 82 333 358 353 177 143 2 357 327
47 46 47 49 54 58 76 47 47 82 103 285 81 9 266 294 319 245 299 343 341 350 38 56 31 36 345 25 21 334 351 359 54 34 91 106 316 300 342 65 238 1 332 282
49 49 52 54 59 58 67 275 18 111 111 261 165 204 315 327 31 3 294 2 360 357 52 68 8 53 343 73 314 23 41 31 5 7 70 22 346 350 120 208 255 203 254 252
50 43 45 43 57 61 45 53 329 36 84 194 186 202 190 175 205 179 325 153 303 277 79 39 90 32 30 188 10 339 29 144 196 134 202 240 266 186 245 174 170 228 213 261
47 46 51 59 59 62 83 128 305 43 84 346 50 332 298 220 188 185 90 323 185 23 183 146 146 79 130 53 316 313 332 162 76 41 288 249 263 275 233 201 211 228 244 261
46 60 64 66 65 64 80 79 263 77 115 94 293 338 5 307 354 151 187 161 77 104 71 79 82 95 15 194 191 131 207 68 237 267 290 308 280 232 233 240 245 268 270 250
55 30 314 296 293 44 79 76 30 125 122 164 255 308 304 342 348 37 41 69 74 34 41 49 72 119 81 353 77 344 186 198 114 243 221 176 250 242 232 222 248 269 261 270
57 57 52 43 18 77 94 19 352 23 44 94 51 267 349 340 358 27 25 28 60 74 96 145 314 251 95 84 85 256 237 240 187 240 194 212 255 263 226 232 250 250 254 256
30 34 32 43 53 70 78 164 276 330 72 78 24 349 6 339 357 18 3 22 48 84 115 59 122 357 85 93 14 265 244 236 245 232 90 292 190 242 209 217 254 276 266 251
9 30 21 51 98 95 51 299 12 61 86 49 60 308 10 3 355 343 2 4 23 17 146 46 56 324 71 35 287 277 262 257 249 237 212 240 274 283 266 226 244 272 269 263
284 318 82 63 39 45 280 329 65 56 72 97 66 31 297 359 360 325 337 30 48 244 60 10 3 292 63 252 284 289 281 218 268 269 228 244 240 265 270 256 254 240 271 261
45 49 55 15 323 296 359 5 22 22 10 32 87 156 297 6 352 323 338 8 62 54 276 322 56 253 273 268 246 250 271 261 177 309 297 258 258 255 263 246 254 243 266 274
46 48 79 255 320 49 34 42 42 341 23 27 341 153 305 352 22 291 76 248 313 59 286 85 336 301 262 286 280 270 260 251 233 230 254 259 261 273 277 276 263 256 254 253
113 122 96 34 27 32 62 358 342 42 291 331 19 311 226 299 155 36 333 85 31 281 303 63 332 253 267 308 298 292 287 266 260 238 248 257 252 251 252 261 264 260 255 258
43 48 47 39 319 37 58 341 320 342 345 349 346 323 357 327 353 360 10 32 251 182 34 252 235 284 336 340 334 325 323 277 264 270 255 258 260 258 246 256 254 258 256 254
63 62 28 75 354 299 186 199 223 263 278 339 2 287 332 327 349 5 41 238 46 15 14 284 312 334 331 332 327 327 324 316 303 289 285 273 270 272 264 254 258 257 253 259
74 59 61 59 235 249 241 279 306 252 282 320 320 303 341 323 335 23 309 356 346 213 313 288 327 326 329 328 327 324 320 319 314 309 298 289 280 273 274 264 259 249 255 256
71 55 73 301 45 309 338 246 266 281 298 232 162 310 11 24 332 11 28 6 278 317 322 321 319 321 325 325 322 319 319 316 312 308 305 302 298 289 286 288 267 262 255 260
54 360 4 113 114 207 247 212 269 324 10 16 10 36 297 300 346 6 72 340 317 317 315 315 317 318 320 319 318 320 324 322 319 316 314 310 309 306 296 293 295 281 266 260